[Iaude] MPEC C116: 2024 CF2 [a=1.96,e=0.84,i=5.6,H=26.4]
    mpec at cfa.harvard.edu 
    mpec at cfa.harvard.edu
       
    Sun Feb 11 08:58:33 EST 2024
    
    
  
M.P.E.C. 2024-C116                            Issued 2024 February 11, 13:56 UT
     The Minor Planet Electronic Circulars contain information on unusual
         minor planets, routine data on comets and natural satellites,
         and occasional editorial announcements.  They are published
    on behalf of Division F of the International Astronomical Union by the
          Minor Planet Center, Smithsonian Astrophysical Observatory,
                          Cambridge, MA 02138, U.S.A.
			  
             Prepared using the Tamkin Foundation Computer Network
                              MPC at CFA.HARVARD.EDU
            URL https://www.minorplanetcenter.net/    ISSN 1523-6714
                                    2024 CF2                                    
Observations:
     K24C02F* C2024 02 09.33397209 15 37.170+15 38 31.74         19.92wXEC116F52
     K24C02F  C2024 02 09.34560009 15 17.197+15 38 40.24         19.76wXEC116F52
     K24C02F  C2024 02 09.35722609 14 57.434+15 38 48.16         19.77wXEC116F52
     K24C02F  C2024 02 09.38007009 14 19.080+15 39 02.59         19.34GVEC116F52
     K24C02F  C2024 02 09.38088909 14 17.734+15 39 03.14         19.56GVEC116F52
     K24C02F  C2024 02 09.51015909 10 53.870+15 39 50.39         19.72GVEC116F52
     K24C02F  C2024 02 09.51097809 10 52.667+15 39 50.47         19.64GVEC116F52
     K24C02F |C2024 02 10.10387008 59 59.130+15 43 51.20         20.3 GVEC116807
     K24C02F |C2024 02 10.10835008 59 54.830+15 43 51.60         20.1 GVEC116807
     K24C02F |C2024 02 10.11268008 59 50.690+15 43 52.10         20.4 GVEC116807
     K24C02F  C2024 02 10.31083608 57 07.291+15 41 28.49         20.39wXEC116F52
     K24C02F  C2024 02 10.32383908 56 56.423+15 41 30.35         20.56wXEC116F52
     K24C02F  C2024 02 10.33693808 56 45.517+15 41 32.07         20.83wXEC116F52
     K24C02F  C2024 02 10.35000208 56 34.691+15 41 33.51         20.76wXEC116F52
Observer details:
807 Cerro Tololo Observatory, La Serena.  Observers T. Linder, R. Holmes.
    0.61-m f/11 Ritchey-Chretien + CCD.
F52 Pan-STARRS 2, Haleakala.  Observers J. Herman, T. Lowe, P. Minguez, A.
    Schultz, I. Smith.  Measurers K. Chambers, T. de Boer, J. Fairlamb, H.
    Gao, M. Huber, C.-C. Lin, E. Magnier, Y. Ramanjooloo, R. Wainscoat, R.
    Weryk.  1.8-m Ritchey-Chretien + CCD.
Orbital elements:
2024 CF2                                                 Earth MOID = 0.0025 AU
Epoch 2023 Sept. 13.0 TT = JDT 2460200.5                MPC                     
M 321.90279              (2000.0)            P               Q                  
n   0.36009332     Peri.   57.81472     +0.95199660     -0.29940783             
a   1.9567079      Node   319.50717     +0.23729931     +0.85329497             
e   0.8443551      Incl.    5.62944     +0.19336882     +0.42689887             
P   2.74           H   26.48          G   0.15           U   8                  
Residuals in seconds of arc
240209 F52  0.2-  0.0     240209 F52  0.1-  0.0     240210 F52  0.1-  0.2+
240209 F52  0.7-  0.0     240209 F52  0.1+  0.1-    240210 F52  0.0   0.0
240209 F52  0.4-  0.1-    240210 807  0.1+  0.1+    240210 F52  0.1+  0.1-
240209 F52  0.0   0.0     240210 807  0.0   0.1-    240210 F52  0.1+  0.1-
240209 F52  0.3+  0.1+    240210 807  0.1-  0.0
Ephemeris:
2024 CF2                 a,e,i = 1.96, 0.84, 6                   q = 0.3046
Date    TT    R. A. (2000) Decl.     Delta      r    Elong.  Phase     V
2024 01 12    20 13 06.4 -16 10 10   0.4955  0.5078    11.5   157.2    33.6
...
2024 01 27    20 06 38.0 -15 21 28   0.1939  0.7927     7.4   170.8
...
2024 02 04    19 38 19.7 -14 48 33   0.05600 0.9338    21.4   157.3    30.2
...
2024 02 10    09 01 31.3 +15 41 44   0.04760 1.0339   172.8     6.9    20.5
2024 02 11    08 49 39.0 +15 41 21   0.06442 1.0501   168.9    10.4    21.3
2024 02 12    08 42 44.4 +15 39 58   0.08137 1.0662   166.3    12.7    21.9
...
2024 02 18    08 28 54.5 +15 33 34   0.1846  1.1603   157.0    19.4    24.1
...
2024 02 26    08 26 19.5 +15 27 27   0.3265  1.2795   148.4    23.9    25.7
...
2024 03 12    08 31 10.0 +15 10 17   0.6086  1.4859   134.7    28.4    27.5
A. U. Tomatic                (C) Copyright 2024 MPC           M.P.E.C. 2024-C116
    
    
More information about the Iaude
mailing list